GW0435 Weather Reports


Display with metric or nautical units.
time (UTC)temp
F
wind
direction
speed
MPH
gust
MPH
rain 1hr
in
rain 24hr
in
rain mn
in
humidity
%
barometer
mb
20260504234555 66 242 4.0 10.0 0.00 0.00 0.00 18 999.2
20260504233103 66 289 5.0 13.0 0.00 0.00 0.00 18 999.1
20260504231549 67 217 5.0 14.0 0.00 0.00 0.00 18 999.1
20260504230047 67 299 8.0 14.0 0.00 0.00 0.00 18 999.4
20260504224546 66 244 6.0 17.0 0.00 0.00 0.00 18 999.5
20260504223046 66 302 9.0 16.0 0.00 0.00 0.00 18 999.5
20260504221544 66 288 5.0 14.0 0.00 0.00 0.00 16 999.8
20260504220041 66 249 5.0 17.0 0.00 0.00 0.00 16 1000.1
20260504214541 67 284 8.0 16.0 0.00 0.00 0.00 14 1000.2
20260504213038 67 288 5.0 15.0 0.00 0.00 0.00 14 1000.2
20260504211536 67 274 7.0 15.0 0.00 0.00 0.00 12 1000.4
20260504210034 67 234 7.0 15.0 0.00 0.00 0.00 13 1000.8
20260504204532 67 236 8.0 18.0 0.00 0.00 0.00 14 1001.1
20260504203030 66 246 3.0 17.0 0.00 0.00 0.00 17 1001.3
20260504201530 67 274 5.0 12.0 0.00 0.00 0.00 18 1001.4
20260504200029 67 244 7.0 17.0 0.00 0.00 0.00 18 1001.2
20260504194531 66 232 8.0 20.0 0.00 0.00 0.00 19 1001.6
20260504193026 66 227 10.0 22.0 0.00 0.00 0.00 20 1001.5
20260504191524 66 230 9.0 17.0 0.00 0.00 0.00 21 1001.4
20260504190025 66 229 7.0 20.0 0.00 0.00 0.00 21 1001.3
20260504184523 65 228 4.0 14.0 0.00 0.00 0.00 22 1001.9
20260504183018 64 228 5.0 17.0 0.00 0.00 0.00 23 1002.0
20260504181515 64 226 7.0 17.0 0.00 0.00 0.00 23 1002.1
20260504180014 64 220 9.0 17.0 0.00 0.00 0.00 24 1002.2
20260504174512 64 220 4.0 10.0 0.00 0.00 0.00 26 1002.4
20260504173008 63 220 9.0 14.0 0.00 0.00 0.00 27 1002.3
20260504171505 62 220 2.0 11.0 0.00 0.00 0.00 32 1002.5
20260504090104 51 219 0.0 2.0 0.00 0.00 0.00 61 1003.6
20260504081550 53 219 0.0 3.0 0.00 0.00 0.00 58 1004.2
20260504050025 52 219 3.0 7.0 0.00 0.00 0.00 54 1005.4
20260504044526 52 219 2.0 6.0 0.00 0.00 0.00 53 1005.5
20260504043033 52 219 3.0 7.0 0.00 0.00 0.00 53 1005.5
20260504041524 53 219 0.0 5.0 0.00 0.00 0.00 46 1005.5
20260504040025 54 219 4.0 7.0 0.00 0.00 0.00 42 1005.4
20260504034523 54 219 3.0 6.0 0.00 0.00 0.00 37 1005.4
20260504033024 55 219 4.0 8.0 0.00 0.00 0.00 35 1005.4
20260504031521 56 219 3.0 7.0 0.00 0.00 0.00 33 1005.1
20260504030021 56 219 3.0 7.0 0.00 0.00 0.00 31 1005.1
20260504024521 57 219 5.0 8.0 0.00 0.00 0.00 29 1004.9
20260504023024 58 219 5.0 10.0 0.00 0.00 0.00 28 1004.8
20260504021520 59 219 7.0 12.0 0.00 0.00 0.00 27 1004.5
20260504020019 60 219 6.0 10.0 0.00 0.00 0.00 26 1004.5
20260504014526 61 219 6.0 12.0 0.00 0.00 0.00 26 1004.3
20260504013021 62 219 7.0 13.0 0.00 0.00 0.00 25 1004.3
20260504011521 63 219 6.0 15.0 0.00 0.00 0.00 24 1004.4
20260504010016 64 219 5.0 15.0 0.00 0.00 0.00 24 1004.6
20260504004517 64 219 5.0 14.0 0.00 0.00 0.00 23 1004.7
20260504003013 64 219 9.0 16.0 0.00 0.00 0.00 23 1004.6
20260504001513 65 219 5.0 14.0 0.00 0.00 0.00 23 1004.8
20260504000012 65 219 4.0 15.0 0.00 0.00 0.00 22 1005.0